DLH400 EDDF-KJFK

Flight info

Callsign DLH400
Flight time N/A
Altitude 36000
Route OBOKA3D OBOKA Z28 DIBIR DCT BUDIP DCT GISEB DCT RAVLO Y70 OTBED DCT ABLUC DCT OZRAT DCT WETFI DCT REVNU DCT RESNO/M082F360 DCT 56N020W 56N030W 56N040W 55N050W DCT LOMSI/N0479F360 N668A TAFFY/N0480F380 DCT ENE PARCH4
Aircraft A346/H-SDE2E3FGHIJ3J4J5M1RWXY/LB1D1

Departure

Time N/A
Airport Frankfurt Main Airport (EDDF)

Arrival

Time 2026-05-08 23:42
Airport John F. Kennedy International Airport (KJFK)
Time Latitude Longitude Altitude Speed Heading
2026-05-08 22:48 45.70278 -68.77094 37843 ft 459 kts 212°
2026-05-08 22:48 45.65374 -68.81246 37845 ft 470 kts 212°
2026-05-08 22:49 45.59690 -68.86045 37844 ft 473 kts 212°
2026-05-08 22:49 45.42759 -69.00275 37842 ft 473 kts 211°
2026-05-08 22:50 45.31386 -69.09779 37841 ft 474 kts 211°
2026-05-08 22:50 45.19840 -69.19381 37842 ft 474 kts 211°
2026-05-08 22:51 45.08441 -69.28816 37841 ft 474 kts 211°
2026-05-08 22:51 44.96887 -69.38334 37844 ft 474 kts 211°
2026-05-08 22:52 44.85388 -69.47763 37841 ft 474 kts 211°
2026-05-08 22:52 44.73850 -69.57179 37843 ft 474 kts 211°
2026-05-08 22:53 44.62434 -69.66454 37842 ft 474 kts 211°
2026-05-08 22:53 44.50934 -69.75752 37842 ft 474 kts 211°
2026-05-08 22:54 44.39336 -69.85088 37842 ft 474 kts 211°
2026-05-08 22:54 44.27756 -69.94366 37841 ft 474 kts 211°
2026-05-08 22:55 44.15243 -70.04344 37842 ft 474 kts 211°
2026-05-08 22:55 44.03497 -70.13665 37844 ft 474 kts 211°
2026-05-08 22:56 43.92026 -70.22727 37842 ft 474 kts 211°
2026-05-08 22:56 43.80562 -70.31744 37842 ft 474 kts 211°
2026-05-08 22:57 43.69033 -70.40771 37843 ft 474 kts 211°
2026-05-08 22:57 43.57512 -70.49755 37843 ft 475 kts 211°
2026-05-08 22:58 43.51667 -70.54298 38263 ft 475 kts 210°
2026-05-08 22:58 43.45975 -70.58682 38780 ft 473 kts 209°
2026-05-08 22:58 43.39887 -70.62608 39159 ft 475 kts 203°
2026-05-08 22:58 43.34183 -70.65484 39482 ft 475 kts 201°
2026-05-08 22:59 43.26374 -70.69313 39844 ft 476 kts 201°
2026-05-08 22:59 43.13813 -70.75470 39841 ft 476 kts 201°
2026-05-08 23:00 43.01076 -70.81688 39840 ft 476 kts 201°
2026-05-08 23:00 42.89944 -70.87104 39838 ft 476 kts 201°
2026-05-08 23:01 42.77194 -70.93274 39840 ft 476 kts 201°
2026-05-08 23:01 42.64514 -70.99378 39843 ft 476 kts 201°
2026-05-08 23:02 42.51706 -71.05519 39839 ft 464 kts 201°
2026-05-08 23:02 42.38352 -71.11897 39841 ft 461 kts 201°
2026-05-08 23:03 42.25406 -71.18052 39836 ft 461 kts 201°
2026-05-08 23:03 42.12936 -71.23955 39834 ft 461 kts 201°
2026-05-08 23:04 42.00752 -71.29699 39839 ft 461 kts 201°
2026-05-08 23:04 41.94730 -71.32531 39724 ft 458 kts 201°
2026-05-08 23:04 41.88664 -71.35378 38199 ft 465 kts 201°
2026-05-08 23:05 41.82456 -71.38285 36629 ft 468 kts 201°
2026-05-08 23:05 41.79191 -71.39958 35921 ft 467 kts 204°
2026-05-08 23:05 41.77305 -71.41064 35470 ft 467 kts 206°
2026-05-08 23:05 41.74383 -71.42993 34736 ft 468 kts 209°
2026-05-08 23:06 41.71528 -71.45148 33965 ft 469 kts 212°
2026-05-08 23:06 41.68776 -71.47505 33180 ft 471 kts 215°
2026-05-08 23:06 41.66107 -71.50081 32355 ft 472 kts 218°
2026-05-08 23:06 41.63543 -71.52850 31527 ft 474 kts 221°
2026-05-08 23:07 41.61007 -71.55685 30676 ft 476 kts 220°
2026-05-08 23:07 41.58490 -71.58496 29828 ft 477 kts 220°
2026-05-08 23:07 41.55959 -71.61317 29358 ft 470 kts 220°
2026-05-08 23:07 41.53438 -71.64122 28899 ft 463 kts 220°
2026-05-08 23:08 41.50983 -71.66851 28509 ft 455 kts 220°
2026-05-08 23:08 41.48559 -71.69542 28128 ft 447 kts 220°
2026-05-08 23:08 41.46198 -71.72161 27882 ft 437 kts 220°
2026-05-08 23:08 41.43884 -71.74724 27625 ft 427 kts 220°
2026-05-08 23:09 41.41623 -71.77228 27371 ft 417 kts 220°
2026-05-08 23:09 41.39413 -71.79672 27118 ft 408 kts 220°
2026-05-08 23:09 41.37251 -71.82061 26870 ft 400 kts 220°
2026-05-08 23:09 41.35132 -71.84402 26548 ft 393 kts 220°
2026-05-08 23:10 41.33037 -71.86714 26110 ft 389 kts 220°
2026-05-08 23:10 41.30956 -71.89007 25665 ft 387 kts 220°
2026-05-08 23:10 41.28884 -71.91288 25221 ft 384 kts 220°
2026-05-08 23:10 41.26833 -71.93543 24782 ft 381 kts 220°
2026-05-08 23:11 41.24796 -71.95781 24315 ft 379 kts 220°
2026-05-08 23:11 41.22772 -71.98003 23976 ft 373 kts 220°
2026-05-08 23:11 41.20794 -72.00171 23818 ft 363 kts 220°
2026-05-08 23:11 41.18871 -72.02278 23631 ft 353 kts 220°
2026-05-08 23:12 41.16998 -72.04330 23458 ft 344 kts 220°
2026-05-08 23:12 41.15167 -72.06332 23188 ft 338 kts 220°
2026-05-08 23:12 41.13382 -72.08285 22797 ft 336 kts 220°
2026-05-08 23:12 41.11664 -72.10379 22380 ft 333 kts 229°
2026-05-08 23:13 41.10244 -72.12788 21986 ft 331 kts 237°
2026-05-08 23:13 41.09145 -72.15455 21577 ft 328 kts 246°
2026-05-08 23:13 41.08350 -72.18283 21188 ft 326 kts 251°
2026-05-08 23:13 41.07643 -72.21136 20803 ft 324 kts 251°
2026-05-08 23:14 41.06949 -72.23974 20422 ft 322 kts 251°
2026-05-08 23:14 41.06259 -72.26788 20039 ft 320 kts 251°
2026-05-08 23:14 41.05569 -72.29589 19587 ft 318 kts 251°
2026-05-08 23:14 41.04883 -72.32364 19096 ft 315 kts 251°
2026-05-08 23:15 41.04209 -72.35080 18635 ft 312 kts 251°
2026-05-08 23:15 41.03530 -72.37810 18155 ft 310 kts 251°
2026-05-08 23:15 41.02855 -72.40522 17725 ft 307 kts 251°
2026-05-08 23:15 41.02187 -72.43197 17332 ft 305 kts 250°
2026-05-08 23:16 41.01208 -72.45673 16869 ft 305 kts 230°
2026-05-08 23:16 40.99552 -72.47373 16489 ft 305 kts 206°
2026-05-08 23:16 40.97491 -72.47998 16107 ft 308 kts 182°
2026-05-08 23:16 40.95362 -72.47581 15723 ft 310 kts 171°
2026-05-08 23:17 40.93247 -72.47355 15263 ft 304 kts 193°
2026-05-08 23:17 40.91366 -72.48493 14764 ft 298 kts 224°
2026-05-08 23:17 40.90158 -72.50668 14463 ft 293 kts 244°
2026-05-08 23:17 40.89309 -72.53073 14247 ft 291 kts 245°
2026-05-08 23:18 40.88435 -72.55478 14039 ft 290 kts 244°
2026-05-08 23:18 40.87525 -72.57860 13833 ft 289 kts 243°
2026-05-08 23:18 40.86599 -72.60227 13628 ft 288 kts 242°
2026-05-08 23:18 40.85641 -72.62554 13430 ft 287 kts 242°
2026-05-08 23:19 40.84688 -72.64875 13238 ft 286 kts 242°
2026-05-08 23:19 40.83738 -72.67190 13022 ft 286 kts 242°
2026-05-08 23:19 40.82794 -72.69493 12829 ft 285 kts 242°
2026-05-08 23:19 40.81851 -72.71795 12627 ft 284 kts 242°
2026-05-08 23:20 40.80915 -72.74080 12426 ft 283 kts 242°
2026-05-08 23:20 40.79979 -72.76365 12224 ft 282 kts 242°
2026-05-08 23:20 40.79047 -72.78643 12018 ft 281 kts 242°
2026-05-08 23:20 40.78118 -72.80912 11854 ft 278 kts 242°
2026-05-08 23:21 40.77205 -72.83145 11476 ft 277 kts 242°
2026-05-08 23:21 40.76290 -72.85383 11074 ft 276 kts 242°
2026-05-08 23:21 40.75380 -72.87610 10656 ft 275 kts 242°
2026-05-08 23:21 40.74488 -72.89792 10272 ft 273 kts 242°
2026-05-08 23:22 40.73588 -72.91996 9874 ft 271 kts 242°
2026-05-08 23:22 40.72694 -72.94185 9496 ft 270 kts 242°
2026-05-08 23:22 40.71806 -72.96359 9112 ft 268 kts 242°
2026-05-08 23:22 40.70926 -72.98517 8724 ft 266 kts 242°
2026-05-08 23:23 40.70049 -73.00666 8349 ft 265 kts 242°
2026-05-08 23:23 40.69178 -73.02802 7979 ft 263 kts 242°
2026-05-08 23:23 40.68314 -73.04921 7591 ft 262 kts 242°
2026-05-08 23:23 40.67455 -73.07027 7223 ft 260 kts 242°
2026-05-08 23:24 40.66595 -73.09138 6847 ft 259 kts 242°
2026-05-08 23:24 40.65745 -73.11225 6462 ft 257 kts 242°
2026-05-08 23:24 40.64902 -73.13294 6119 ft 256 kts 242°
2026-05-08 23:24 40.64065 -73.15353 5742 ft 254 kts 242°
2026-05-08 23:25 40.63241 -73.17426 5354 ft 255 kts 242°
2026-05-08 23:25 40.62434 -73.19513 4975 ft 256 kts 242°
2026-05-08 23:25 40.61631 -73.21624 4917 ft 259 kts 242°
2026-05-08 23:25 40.60824 -73.23754 4900 ft 260 kts 242°
2026-05-08 23:26 40.60014 -73.25898 4888 ft 260 kts 242°
2026-05-08 23:26 40.59204 -73.28042 4654 ft 260 kts 242°
2026-05-08 23:26 40.58397 -73.30183 4401 ft 261 kts 242°
2026-05-08 23:26 40.57589 -73.32323 4150 ft 262 kts 242°
2026-05-08 23:27 40.56773 -73.34472 3896 ft 262 kts 242°
2026-05-08 23:27 40.55962 -73.36591 3640 ft 263 kts 242°
2026-05-08 23:27 40.55205 -73.38786 3376 ft 263 kts 255°
2026-05-08 23:27 40.54944 -73.41166 3125 ft 263 kts 265°
2026-05-08 23:28 40.54831 -73.43562 2925 ft 262 kts 266°
2026-05-08 23:28 40.54744 -73.45955 2910 ft 262 kts 267°
2026-05-08 23:28 40.54661 -73.48354 2906 ft 262 kts 267°
2026-05-08 23:28 40.54579 -73.50765 2904 ft 262 kts 267°
2026-05-08 23:29 40.54555 -73.53165 2889 ft 262 kts 276°
2026-05-08 23:29 40.55061 -73.55464 2898 ft 263 kts 295°
2026-05-08 23:29 40.55946 -73.57508 2895 ft 249 kts 303°
2026-05-08 23:29 40.56872 -73.59367 2833 ft 235 kts 302°
2026-05-08 23:30 40.57703 -73.61114 2714 ft 223 kts 301°
2026-05-08 23:30 40.58490 -73.62847 2300 ft 218 kts 300°
2026-05-08 23:30 40.59245 -73.64539 1998 ft 209 kts 300°
2026-05-08 23:30 40.59966 -73.66150 1739 ft 198 kts 300°
2026-05-08 23:31 40.60659 -73.67692 1474 ft 189 kts 300°
2026-05-08 23:31 40.61365 -73.69251 1374 ft 215 kts 300°
2026-05-08 23:31 40.62135 -73.70974 1943 ft 219 kts 300°
2026-05-08 23:31 40.62901 -73.72729 2328 ft 222 kts 295°
2026-05-08 23:32 40.63201 -73.74730 2648 ft 234 kts 263°
2026-05-08 23:32 40.62656 -73.76686 2902 ft 225 kts 236°
2026-05-08 23:32 40.61702 -73.78308 2909 ft 223 kts 229°
2026-05-08 23:32 40.60523 -73.79590 2879 ft 225 kts 201°
2026-05-08 23:33 40.58900 -73.79872 2918 ft 237 kts 174°
2026-05-08 23:33 40.57462 -73.79561 2914 ft 239 kts 162°
2026-05-08 23:33 40.56156 -73.78516 2875 ft 239 kts 132°
2026-05-08 23:33 40.55293 -73.76637 2970 ft 239 kts 119°
2026-05-08 23:34 40.54445 -73.74574 3029 ft 240 kts 118°
2026-05-08 23:34 40.53682 -73.72633 2935 ft 239 kts 117°
2026-05-08 23:34 40.52924 -73.70688 2916 ft 234 kts 117°
2026-05-08 23:34 40.52204 -73.68833 2892 ft 221 kts 117°
2026-05-08 23:35 40.51519 -73.67069 2886 ft 212 kts 117°
2026-05-08 23:35 40.50848 -73.65339 2897 ft 212 kts 117°
2026-05-08 23:35 40.50178 -73.63612 2901 ft 212 kts 117°
2026-05-08 23:35 40.49510 -73.61889 2902 ft 212 kts 117°
2026-05-08 23:36 40.48839 -73.60158 2903 ft 212 kts 117°
2026-05-08 23:36 40.48273 -73.58379 2876 ft 212 kts 97°
2026-05-08 23:36 40.48469 -73.56485 2885 ft 213 kts 62°
2026-05-08 23:36 40.49441 -73.55068 2895 ft 214 kts 35°
2026-05-08 23:37 40.50713 -73.54059 2781 ft 213 kts 29°
2026-05-08 23:37 40.52050 -73.53215 2646 ft 213 kts 12°
2026-05-08 23:37 40.53506 -73.53302 2496 ft 213 kts 336°
2026-05-08 23:37 40.54672 -73.54471 2400 ft 213 kts 308°
2026-05-08 23:38 40.55503 -73.56083 2313 ft 208 kts 301°
2026-05-08 23:38 40.56212 -73.57702 2213 ft 203 kts 299°
2026-05-08 23:38 40.56910 -73.59326 2094 ft 203 kts 299°
2026-05-08 23:38 40.57609 -73.60920 1959 ft 197 kts 300°
2026-05-08 23:39 40.58271 -73.62402 1877 ft 176 kts 300°
2026-05-08 23:39 40.58862 -73.63711 1869 ft 165 kts 300°
2026-05-08 23:39 40.59452 -73.65020 1898 ft 167 kts 300°
2026-05-08 23:39 40.60037 -73.66316 1712 ft 162 kts 300°
2026-05-08 23:40 40.60609 -73.67585 1510 ft 161 kts 298°
2026-05-08 23:40 40.61179 -73.68851 1310 ft 160 kts 301°
2026-05-08 23:40 40.61749 -73.70111 1102 ft 160 kts 300°
2026-05-08 23:40 40.62314 -73.71366 927 ft 164 kts 301°
2026-05-08 23:41 40.62901 -73.72661 745 ft 162 kts 301°
2026-05-08 23:41 40.63482 -73.73950 512 ft 165 kts 301°
2026-05-08 23:41 40.64064 -73.75241 239 ft 162 kts 301°
2026-05-08 23:41 40.64663 -73.76563 43 ft 153 kts 301°
2026-05-08 23:42 40.65180 -73.77704 30 ft 101 kts 300°
2026-05-08 23:42 40.65534 -73.78487 30 ft 66 kts 302°
2026-05-08 23:42 40.65681 -73.78833 28 ft 24 kts 280°
2026-05-08 23:42 40.65626 -73.78928 28 ft 12 kts 165°
2026-05-08 23:43 40.65594 -73.78893 28 ft 0 kts 114°
2026-05-08 23:43 40.65568 -73.78845 29 ft 9 kts 124°
2026-05-08 23:43 40.65527 -73.78757 29 ft 13 kts 121°
2026-05-08 23:43 40.65477 -73.78646 30 ft 13 kts 120°
2026-05-08 23:44 40.65456 -73.78601 31 ft 6 kts 123°
2026-05-08 23:44 40.65431 -73.78559 32 ft 5 kts 136°
2026-05-08 23:44 40.65428 -73.78556 32 ft 0 kts 150°
2026-05-08 23:44 40.65418 -73.78548 33 ft 5 kts 150°
2026-05-08 23:45 40.65355 -73.78513 32 ft 10 kts 182°
2026-05-08 23:45 40.65319 -73.78567 32 ft 9 kts 239°
2026-05-08 23:45 40.65288 -73.78639 36 ft 8 kts 242°
2026-05-08 23:45 40.65249 -73.78732 32 ft 15 kts 240°
2026-05-08 23:46 40.65221 -73.78896 32 ft 18 kts 273°
2026-05-08 23:46 40.65262 -73.79095 32 ft 19 kts 289°
2026-05-08 23:46 40.65291 -73.79290 32 ft 19 kts 262°
2026-05-08 23:46 40.65226 -73.79477 32 ft 21 kts 241°
2026-05-08 23:47 40.65148 -73.79661 32 ft 19 kts 240°
2026-05-08 23:47 40.65045 -73.79788 32 ft 19 kts 202°
2026-05-08 23:47 40.64909 -73.79809 32 ft 19 kts 180°
2026-05-08 23:47 40.64776 -73.79797 32 ft 19 kts 165°
2026-05-08 23:48 40.64598 -73.79651 32 ft 16 kts 146°
2026-05-08 23:48 40.64545 -73.79616 32 ft 4 kts 158°
2026-05-08 23:48 40.64514 -73.79604 33 ft 5 kts 165°
2026-05-08 23:48 40.64430 -73.79594 32 ft 15 kts 178°
2026-05-08 23:49 40.64324 -73.79597 33 ft 15 kts 184°
2026-05-08 23:49 40.64211 -73.79606 33 ft 16 kts 184°
2026-05-08 23:49 40.64114 -73.79607 33 ft 13 kts 174°
2026-05-08 23:49 40.64018 -73.79558 31 ft 16 kts 139°
2026-05-08 23:50 40.63948 -73.79438 31 ft 17 kts 121°
2026-05-08 23:50 40.63958 -73.79288 29 ft 14 kts 49°
2026-05-08 23:50 40.63993 -73.79240 31 ft 0 kts 39°
2026-05-08 23:50 40.63997 -73.79235 32 ft 1 kts 53°
2026-05-08 23:51 40.64030 -73.79191 33 ft 8 kts 37°
2026-05-08 23:51 40.64069 -73.79176 33 ft 0 kts 359°
2026-05-08 23:51 40.64082 -73.79182 33 ft 1 kts 331°
2026-05-08 23:51 40.64095 -73.79193 33 ft 3 kts 327°
2026-05-08 23:52 40.64114 -73.79209 33 ft 0 kts 325°